Location: Unspecified
(38.0989°N, 0.6729°W)
Time: 09:56:27
(UTC+02:00)

X-37B - Pass Details

Date: 31 January 2022
Orbit: 329 x 342 km, 45.0° (Epoch: 18 May)

Event Time Altitude Azimuth Distance (km) Brightness Sun altitude
Rises 19:54:52 0° 287° (WNW) 2,117 5.5 -18.0°
Reaches altitude 10° 19:57:12 10° 306° (NW) 1,277 3.8 -18.5°
Enters shadow 19:59:07 19° 348° (NNW) 876 2.4 -18.8°
